Zurück zum Katalog

SL-14 DEB

AktivPO
NORAD 26000·DEBRIS·🇷🇺 Russia

Gestartet Sep 28, 1991 von Plesetsk Cosmodrome

Loading…

Nächste Überflüge (nächste 24 Stunden)

TLE

AktuellSource: Space-Track

Epoche: Sep 14, 2026, 11:26 UTC

1 26000U 91068K   26257.47671100  .00000059  00000-0  34081-3 0  9993
2 26000  82.7170 256.1331 0040531 288.3990 226.8400 12.45467020214851

Verfolge SL-14 DEB in Echtzeit mit AllMySat

Download on the App Store